• In Russia
  • List of Countries
  • For 7 days
  • Water Temperature
  • Satellite Maps
  • Weather Map
  • Weather Widgets
  • user-avatar
    Login

    Hourly Weather Tugnuy

    Today, 14 November, Wednesday

    Time Temperature Precipitation Wind Pressure Humidity
    00:00 -15°C° 0 mm 1 mps 715 mmHg 87%
    01:00 -15°C° 0 mm 1 mps 715 mmHg 88%
    02:00 -15°C° 0 mm 1 mps 715 mmHg 88%
    03:00 -15°C° 0 mm 1 mps 716 mmHg 87%
    04:00 -15°C° 0 mm 1 mps 716 mmHg 86%
    05:00 -15°C° 0 mm 1 mps 716 mmHg 86%
    06:00 -15°C° 0 mm 1 mps 716 mmHg 85%
    07:00 -15°C° 0 mm 1 mps 717 mmHg 85%
    08:00 -14°C° 0 mm 1 mps 717 mmHg 75%
    09:00 -14°C° 0 mm 2 mps 717 mmHg 65%
    10:00 -12°C° 0 mm 2 mps 717 mmHg 55%
    11:00 -10°C° 0 mm 2 mps 717 mmHg 53%
    12:00 -10°C° 0 mm 2 mps 717 mmHg 50%
    13:00 -10°C° 0 mm 3 mps 717 mmHg 47%
    14:00 -10°C° 0 mm 2 mps 717 mmHg 54%
    15:00 -12°C° 0 mm 2 mps 717 mmHg 61%
    16:00 -13°C° 0 mm 2 mps 717 mmHg 67%
    17:00 -13°C° 0 mm 2 mps 717 mmHg 69%
    18:00 -13°C° 0 mm 2 mps 717 mmHg 71%
    19:00 -13°C° 0 mm 2 mps 718 mmHg 73%
    20:00 -13°C° 0 mm 2 mps 718 mmHg 73%
    21:00 -13°C° 0 mm 2 mps 718 mmHg 73%
    22:00 -13°C° 0 mm 2 mps 718 mmHg 73%
    23:00 -13°C° 0 mm 2 mps 718 mmHg 76%

    Tomorrow, 15 November, Thursday

    Time Temperature Precipitation Wind Pressure Humidity
    00:00 -14°C° 0 mm 2 mps 718 mmHg 78%
    01:00 -14°C° 0 mm 2 mps 718 mmHg 80%
    02:00 -14°C° 0.1 mm 2 mps 718 mmHg 81%
    03:00 -14°C° 0.1 mm 2 mps 718 mmHg 81%
    04:00 -14°C° 0.1 mm 2 mps 717 mmHg 82%
    05:00 -14°C° 0 mm 2 mps 717 mmHg 82%
    06:00 -14°C° 0 mm 2 mps 717 mmHg 82%
    07:00 -14°C° 0 mm 2 mps 717 mmHg 82%
    08:00 -13°C° 0 mm 2 mps 717 mmHg 75%
    09:00 -12°C° 0 mm 2 mps 717 mmHg 69%
    10:00 -10°C° 0 mm 2 mps 717 mmHg 62%
    11:00 -9°C° 0 mm 2 mps 716 mmHg 59%
    12:00 -9°C° 0 mm 3 mps 716 mmHg 55%
    13:00 -8°C° 0 mm 3 mps 715 mmHg 52%
    14:00 -8°C° 0 mm 2 mps 715 mmHg 57%
    15:00 -9°C° 0 mm 2 mps 715 mmHg 62%
    16:00 -12°C° 0 mm 2 mps 714 mmHg 66%
    17:00 -12°C° 0 mm 2 mps 714 mmHg 68%
    18:00 -13°C° 0 mm 2 mps 714 mmHg 70%
    19:00 -13°C° 0 mm 2 mps 714 mmHg 72%
    20:00 -13°C° 0 mm 2 mps 713 mmHg 72%
    21:00 -12°C° 0 mm 1 mps 713 mmHg 73%
    22:00 -12°C° 0 mm 1 mps 713 mmHg 74%
    23:00 -12°C° 0 mm 1 mps 712 mmHg 73%

    Day after tomorrow, 16 November, Friday

    Time Temperature Precipitation Wind Pressure Humidity
    00:00 -12°C° 0 mm 1 mps 712 mmHg 73%
    01:00 -12°C° 0 mm 1 mps 712 mmHg 73%
    02:00 -12°C° 0 mm 1 mps 711 mmHg 73%
    03:00 -11°C° 0 mm 1 mps 711 mmHg 73%
    04:00 -11°C° 0 mm 1 mps 711 mmHg 72%
    05:00 -11°C° 0 mm 1 mps 711 mmHg 73%
    06:00 -11°C° 0 mm 1 mps 711 mmHg 74%
    07:00 -11°C° 0 mm 1 mps 711 mmHg 76%
    08:00 -12°C° 0 mm 2 mps 711 mmHg 72%
    09:00 -9°C° 0 mm 2 mps 711 mmHg 69%
    10:00 -8°C° 0 mm 2 mps 711 mmHg 66%
    11:00 -7°C° 0 mm 2 mps 711 mmHg 63%
    12:00 -7°C° 0 mm 3 mps 710 mmHg 60%
    13:00 -5°C° 0 mm 3 mps 710 mmHg 58%
    14:00 -7°C° 0 mm 3 mps 710 mmHg 63%
    15:00 -7°C° 0 mm 2 mps 710 mmHg 67%
    16:00 -8°C° 0 mm 2 mps 710 mmHg 72%
    17:00 -8°C° 0 mm 2 mps 710 mmHg 74%
    18:00 -8°C° 0 mm 2 mps 710 mmHg 75%
    19:00 -9°C° 0 mm 2 mps 711 mmHg 77%
    20:00 -9°C° 0 mm 2 mps 711 mmHg 79%
    21:00 -9°C° 0 mm 1 mps 711 mmHg 81%
    22:00 -9°C° 0 mm 1 mps 711 mmHg 84%
    23:00 -9°C° 0.1 mm 1 mps 711 mmHg 85%

    17 November, Saturday

    Time Temperature Precipitation Wind Pressure Humidity
    00:00 -9°C° 0.1 mm 1 mps 712 mmHg 87%
    01:00 -8°C° 0.1 mm 1 mps 712 mmHg 89%
    02:00 -12°C° 0.2 mm 3 mps 713 mmHg 86%
    03:00 -12°C° 0.2 mm 4 mps 713 mmHg 82%
    04:00 -13°C° 0.2 mm 5 mps 713 mmHg 79%
    05:00 -14°C° 0 mm 5 mps 714 mmHg 78%
    06:00 -15°C° 0 mm 4 mps 714 mmHg 77%
    07:00 -17°C° 0 mm 4 mps 715 mmHg 76%
    08:00 -16°C° 0 mm 4 mps 715 mmHg 71%
    09:00 -17°C° 0 mm 5 mps 715 mmHg 66%
    10:00 -17°C° 0 mm 5 mps 716 mmHg 61%
    11:00 -17°C° 0 mm 5 mps 716 mmHg 60%
    12:00 -15°C° 0 mm 5 mps 715 mmHg 59%
    13:00 -15°C° 0 mm 5 mps 715 mmHg 58%
    14:00 -16°C° 0 mm 4 mps 715 mmHg 63%
    15:00 -16°C° 0 mm 3 mps 715 mmHg 68%
    16:00 -15°C° 0 mm 2 mps 715 mmHg 73%
    17:00 -16°C° 0 mm 2 mps 715 mmHg 76%
    18:00 -16°C° 0 mm 2 mps 715 mmHg 79%
    19:00 -16°C° 0 mm 2 mps 715 mmHg 82%
    20:00 -17°C° 0 mm 2 mps 715 mmHg 83%
    21:00 -17°C° 0 mm 2 mps 715 mmHg 84%
    22:00 -17°C° 0 mm 2 mps 715 mmHg 85%
    23:00 -17°C° 0 mm 2 mps 715 mmHg 86%

    18 November, Sunday

    Time Temperature Precipitation Wind Pressure Humidity
    00:00 -17°C° 0 mm 2 mps 715 mmHg 87%
    01:00 -17°C° 0 mm 2 mps 715 mmHg 88%
    02:00 -16°C° 0 mm 1 mps 714 mmHg 89%
    03:00 -16°C° 0 mm 1 mps 714 mmHg 90%
    04:00 -16°C° 0 mm 1 mps 714 mmHg 91%
    05:00 -17°C° 0 mm 1 mps 714 mmHg 92%
    06:00 -17°C° 0 mm 1 mps 714 mmHg 92%
    07:00 -17°C° 0 mm 1 mps 714 mmHg 93%
    08:00 -16°C° 0 mm 1 mps 714 mmHg 85%
    09:00 -16°C° 0 mm 2 mps 714 mmHg 77%
    10:00 -15°C° 0 mm 2 mps 714 mmHg 69%
    11:00 -14°C° 0 mm 2 mps 714 mmHg 67%
    12:00 -15°C° 0 mm 3 mps 713 mmHg 64%
    13:00 -14°C° 0 mm 3 mps 713 mmHg 61%
    14:00 -15°C° 0 mm 3 mps 713 mmHg 67%
    15:00 -14°C° 0 mm 2 mps 713 mmHg 73%
    16:00 -15°C° 0 mm 2 mps 713 mmHg 79%
    17:00 -15°C° 0 mm 2 mps 713 mmHg 82%
    18:00 -16°C° 0 mm 2 mps 713 mmHg 86%
    19:00 -14°C° 0 mm 1 mps 713 mmHg 89%
    20:00 -15°C° 0 mm 1 mps 713 mmHg 90%
    21:00 -15°C° 0 mm 1 mps 712 mmHg 90%
    22:00 -16°C° 0 mm 1 mps 712 mmHg 91%
    23:00 -16°C° 0 mm 1 mps 712 mmHg 91%

    19 November, Monday

    Time Temperature Precipitation Wind Pressure Humidity
    00:00 -16°C° 0 mm 1 mps 712 mmHg 90%
    01:00 -16°C° 0 mm 1 mps 712 mmHg 90%
    02:00 -16°C° 0 mm 1 mps 711 mmHg 90%
    03:00 -17°C° 0 mm 1 mps 711 mmHg 90%
    04:00 -17°C° 0 mm 1 mps 711 mmHg 90%
    05:00 -17°C° 0 mm 1 mps 711 mmHg 90%
    06:00 -17°C° 0 mm 1 mps 711 mmHg 90%
    07:00 -17°C° 0 mm 1 mps 711 mmHg 90%
    08:00 -15°C° 0 mm 1 mps 711 mmHg 83%
    09:00 -14°C° 0 mm 1 mps 711 mmHg 75%
    10:00 -12°C° 0 mm 1 mps 711 mmHg 68%
    11:00 -11°C° 0 mm 1 mps 711 mmHg 63%
    12:00 -10°C° 0 mm 1 mps 710 mmHg 58%
    13:00 -9°C° 0 mm 1 mps 710 mmHg 53%
    14:00 -10°C° 0 mm 1 mps 710 mmHg 61%
    15:00 -11°C° 0 mm 1 mps 710 mmHg 68%
    16:00 -12°C° 0 mm 1 mps 710 mmHg 76%
    17:00 -13°C° 0 mm 1 mps 710 mmHg 78%
    18:00 -13°C° 0 mm 1 mps 710 mmHg 80%
    19:00 -14°C° 0 mm 1 mps 710 mmHg 82%
    20:00 -14°C° 0 mm 1 mps 710 mmHg 83%
    21:00 -14°C° 0 mm 1 mps 710 mmHg 84%
    22:00 -14°C° 0 mm 1 mps 709 mmHg 84%
    23:00 -15°C° 0 mm 1 mps 709 mmHg 85%
    Show more